FW1747 Weather Reports


Display with metric or nautical units.
time (UTC)temp
F
wind
direction
speed
MPH
gust
MPH
rain 1hr
in
rain 24hr
in
rain mn
in
humidity
%
barometer
mb
20260509061505 55 296 0.0 0.0 0.00 0.00 0.00 73 1022.5
20260509060006 56 291 0.0 0.0 0.00 0.00 0.00 72 1022.6
20260509054505 56 259 0.0 0.0 0.00 0.00 0.00 72 1022.7
20260509053005 57 257 0.0 0.0 0.00 0.00 0.00 71 1022.6
20260509051505 57 275 0.0 0.0 0.00 0.00 0.00 70 1022.4
20260509050005 58 275 0.0 0.0 0.00 0.00 0.00 69 1022.2
20260509044503 59 297 0.0 0.0 0.00 0.00 0.00 67 1022.2
20260509043003 60 288 0.0 0.0 0.00 0.00 0.00 66 1022.1
20260509041505 60 290 0.0 0.0 0.00 0.00 0.00 65 1022.0
20260509040003 61 261 0.0 0.0 0.00 0.00 0.00 65 1022.0
20260509034501 61 333 0.0 0.0 0.00 0.00 0.00 63 1021.9
20260509033003 62 277 0.0 0.0 0.00 0.00 0.00 63 1021.8
20260509031602 62 290 0.0 0.0 0.00 0.00 0.00 61 1021.6
20260509030101 64 290 0.0 0.0 0.00 0.00 0.00 59 1021.5
20260509024559 66 90 0.0 0.0 0.00 0.00 0.00 56 1021.3
20260509023058 66 321 0.0 0.0 0.00 0.00 0.00 55 1021.2
20260509021558 67 341 0.0 0.0 0.00 0.00 0.00 54 1021.2
20260509020057 67 292 0.0 0.0 0.00 0.00 0.00 54 1021.2
20260509014557 67 315 0.0 0.0 0.00 0.00 0.00 53 1021.3
20260509013057 67 360 0.0 0.0 0.00 0.00 0.00 53 1021.4
20260509011605 67 359 0.0 0.0 0.00 0.00 0.00 52 1021.5
20260509010054 66 225 0.0 0.0 0.00 0.00 0.00 52 1021.6
20260509004608 66 314 0.0 0.0 0.00 0.00 0.00 51 1021.7
20260509003054 68 360 0.0 0.0 0.00 0.00 0.00 50 1021.7
20260509001552 67 300 0.0 1.0 0.00 0.00 0.00 50 1021.7
20260509000055 66 36 0.0 0.0 0.00 0.00 0.00 51 1021.7
20260508234552 68 338 0.0 1.0 0.00 0.00 0.00 49 1021.8
20260508233051 68 303 0.0 0.0 0.00 0.00 0.00 48 1021.8
20260508231551 67 306 0.0 0.0 0.00 0.00 0.00 50 1021.8
20260508230048 68 272 0.0 0.0 0.00 0.00 0.00 48 1021.9
20260508224546 67 75 0.0 0.0 0.00 0.00 0.00 50 1021.9
20260508223050 67 235 0.0 0.0 0.00 0.00 0.00 49 1022.0
20260508221543 67 111 0.0 0.0 0.00 0.00 0.00 53 1022.1
20260508220041 65 108 0.0 0.0 0.00 0.00 0.00 54 1022.2
20260508214551 65 198 0.0 0.0 0.00 0.00 0.00 49 1022.4
20260508213039 65 197 0.0 0.0 0.00 0.00 0.00 53 1022.2
20260508211537 64 354 0.0 0.0 0.00 0.00 0.00 51 1022.2
20260508210035 64 1 0.0 0.0 0.00 0.00 0.00 52 1022.2
20260508204540 63 233 0.0 0.0 0.00 0.00 0.00 51 1022.3
20260508203031 64 77 0.0 0.0 0.00 0.00 0.00 52 1022.3
20260508201527 62 195 0.0 0.0 0.00 0.00 0.00 53 1022.5
20260508200030 62 220 0.0 1.0 0.00 0.00 0.00 54 1022.5
20260508194524 60 186 0.0 0.0 0.00 0.00 0.00 57 1022.5
20260508193023 61 289 0.0 0.0 0.00 0.00 0.00 54 1022.7
20260508191520 60 155 0.0 0.0 0.00 0.00 0.00 60 1022.7
20260508190023 58 139 0.0 0.0 0.00 0.00 0.00 62 1022.8
20260508184517 58 212 0.0 0.0 0.00 0.00 0.00 59 1022.9
20260508183013 57 299 0.0 0.0 0.00 0.00 0.00 62 1022.8
20260508181511 57 221 0.0 0.0 0.00 0.00 0.00 63 1022.8
20260508180016 56 204 0.0 0.0 0.00 0.00 0.00 65 1022.7
20260508174505 55 231 0.0 0.0 0.00 0.00 0.00 66 1022.6
20260508173001 54 169 0.0 3.0 0.00 0.00 0.00 68 1022.6
20260508171559 53 206 0.0 6.0 0.00 0.00 0.00 67 1022.5
20260508170057 53 237 0.0 0.0 0.00 0.00 0.00 69 1022.4
20260508164554 52 174 0.0 0.0 0.00 0.00 0.00 71 1022.2
20260508163053 52 191 0.0 0.0 0.00 0.00 0.00 72 1022.1
20260508161550 52 206 0.0 0.0 0.00 0.00 0.00 73 1021.9
20260508160114 52 229 0.0 0.0 0.00 0.00 0.00 73 1021.5
20260508154551 51 83 0.0 0.0 0.00 0.00 0.00 75 1021.9
20260508153049 51 131 0.0 0.0 0.00 0.00 0.00 77 1021.7
20260508151551 48 158 0.0 1.0 0.00 0.00 0.00 80 1021.7
20260508150048 48 131 0.0 0.0 0.00 0.00 0.00 79 1021.7
20260508144548 49 79 0.0 0.0 0.00 0.00 0.00 78 1021.8
20260508143059 49 181 0.0 0.0 0.00 0.00 0.00 78 1021.9
20260508141554 48 181 0.0 0.0 0.00 0.00 0.00 79 1021.8
20260508140048 47 181 0.0 0.0 0.00 0.00 0.00 80 1021.9
20260508134543 47 181 0.0 0.0 0.00 0.00 0.00 80 1021.5
20260508133052 46 181 0.0 0.0 0.00 0.00 0.00 80 1021.2
20260508131539 46 203 0.0 0.0 0.00 0.00 0.00 80 1020.9
20260508130036 46 181 0.0 0.0 0.00 0.00 0.00 79 1020.7
20260508124533 46 191 0.0 0.0 0.00 0.00 0.00 79 1020.5
20260508123032 47 217 0.0 0.0 0.00 0.00 0.00 78 1020.3
20260508121551 47 196 0.0 0.0 0.00 0.00 0.00 78 1019.9
20260508120031 47 287 0.0 0.0 0.00 0.00 0.00 78 1019.9
20260508114526 47 287 0.0 0.0 0.00 0.00 0.00 79 1019.9
20260508113024 47 234 0.0 0.0 0.00 0.00 0.00 80 1019.7
20260508111520 48 234 0.0 0.0 0.00 0.00 0.00 80 1019.4
20260508110018 48 234 0.0 0.0 0.00 0.00 0.00 80 1019.1
20260508104518 48 234 0.0 0.0 0.00 0.00 0.00 80 1019.0
20260508103015 48 234 0.0 0.0 0.00 0.00 0.00 79 1018.8
20260508101511 49 234 0.0 0.0 0.00 0.00 0.00 78 1018.7
20260508100010 49 234 0.0 0.0 0.00 0.00 0.00 78 1018.5
20260508094508 49 234 0.0 0.0 0.00 0.00 0.00 79 1018.4
20260508093008 49 232 0.0 0.0 0.00 0.00 0.00 79 1018.1
20260508091511 49 232 0.0 0.0 0.00 0.00 0.00 79 1018.0
20260508090005 49 232 0.0 0.0 0.00 0.00 0.00 78 1018.0
20260508084501 49 232 0.0 0.0 0.00 0.00 0.00 78 1018.1
20260508083149 49 232 0.0 0.0 0.00 0.00 0.00 77 1017.9
20260508081557 50 232 0.0 0.0 0.00 0.00 0.00 77 1017.7
20260508080100 50 232 0.0 0.0 0.00 0.00 0.00 76 1017.6
20260508074553 50 232 0.0 0.0 0.00 0.00 0.00 75 1017.7
20260508073057 51 232 0.0 0.0 0.00 0.00 0.00 74 1017.5
20260508071551 52 232 0.0 0.0 0.00 0.00 0.00 72 1017.4
20260508070046 52 232 0.0 0.0 0.00 0.00 0.00 71 1017.5
20260508064604 53 232 0.0 0.0 0.00 0.00 0.00 70 1017.4
20260508063047 53 232 0.0 0.0 0.00 0.00 0.00 69 1017.3
20260508061545 54 232 0.0 0.0 0.00 0.00 0.00 69 1017.3